| time (UTC) | temp F | wind direction | speed MPH | gust MPH | rain 1hr in | rain 24hr in | rain mn in | humidity % | barometer mb |
| 20260510213806 | 69 | 112 | 2.0 | 3.0 | 0.00 | 0.25 | 0.00 | 36 | 1017.6 |
| 20260510213305 | 68 | 343 | 2.0 | 3.0 | 0.00 | 0.25 | 0.00 | 38 | 1017.9 |
| 20260510212806 | 68 | 342 | 3.0 | 3.0 | 0.00 | 0.25 | 0.00 | 37 | 1017.6 |
| 20260510211805 | 69 | 308 | 3.0 | 7.0 | 0.00 | 0.25 | 0.00 | 37 | 1017.9 |
| 20260510211305 | 69 | 228 | 2.0 | 3.0 | 0.00 | 0.25 | 0.00 | 38 | 1017.6 |
| 20260510210806 | 69 | 333 | 2.0 | 2.0 | 0.00 | 0.25 | 0.00 | 37 | 1017.9 |
| 20260510210306 | 69 | 358 | 2.0 | 5.0 | 0.00 | 0.25 | 0.00 | 38 | 1018.3 |
| 20260510205805 | 69 | 0 | 2.0 | 3.0 | 0.00 | 0.25 | 0.00 | 36 | 1017.9 |
| 20260510205307 | 69 | 339 | 3.0 | 3.0 | 0.00 | 0.25 | 0.00 | 37 | 1017.9 |
| 20260510204806 | 69 | 348 | 3.0 | 3.0 | 0.00 | 0.25 | 0.00 | 37 | 1017.9 |
| 20260510204305 | 69 | 20 | 1.0 | 2.0 | 0.00 | 0.25 | 0.00 | 40 | 1017.9 |
| 20260510203806 | 68 | 12 | 2.0 | 2.0 | 0.00 | 0.25 | 0.00 | 37 | 1017.9 |
| 20260510202806 | 70 | 233 | 2.0 | 2.0 | 0.00 | 0.25 | 0.00 | 36 | 1017.9 |
| 20260510202306 | 70 | 60 | 0.0 | 2.0 | 0.00 | 0.25 | 0.00 | 34 | 1017.6 |
| 20260510201806 | 70 | 144 | 2.0 | 6.0 | 0.00 | 0.25 | 0.00 | 34 | 1017.6 |
| 20260510201306 | 69 | 345 | 2.0 | 5.0 | 0.00 | 0.25 | 0.00 | 37 | 1017.3 |
| 20260510200805 | 70 | 36 | 1.0 | 3.0 | 0.00 | 0.25 | 0.00 | 36 | 1017.9 |
| 20260510200306 | 69 | 268 | 2.0 | 2.0 | 0.00 | 0.25 | 0.00 | 37 | 1017.6 |
| 20260510195805 | 70 | 8 | 5.0 | 7.0 | 0.00 | 0.25 | 0.00 | 37 | 1017.6 |
| 20260510195306 | 70 | 12 | 2.0 | 6.0 | 0.00 | 0.25 | 0.00 | 36 | 1017.9 |
| 20260510194806 | 72 | 343 | 2.0 | 2.0 | 0.00 | 0.25 | 0.00 | 35 | 1017.6 |
| 20260510194306 | 71 | 78 | 2.0 | 2.0 | 0.00 | 0.25 | 0.00 | 34 | 1017.6 |
| 20260510193806 | 70 | 44 | 2.0 | 2.0 | 0.00 | 0.25 | 0.00 | 33 | 1017.6 |
| 20260510193305 | 69 | 350 | 3.0 | 6.0 | 0.00 | 0.25 | 0.00 | 38 | 1017.9 |
| 20260510192805 | 69 | 38 | 3.0 | 3.0 | 0.00 | 0.25 | 0.00 | 38 | 1017.9 |
| 20260510192307 | 70 | 130 | 2.0 | 3.0 | 0.00 | 0.25 | 0.00 | 37 | 1018.3 |
| 20260510191806 | 70 | 87 | 3.0 | 5.0 | 0.00 | 0.25 | 0.00 | 36 | 1018.3 |
| 20260510191306 | 70 | 91 | 2.0 | 2.0 | 0.00 | 0.25 | 0.00 | 38 | 1018.3 |
| 20260510190805 | 68 | 100 | 2.0 | 3.0 | 0.00 | 0.25 | 0.00 | 38 | 1017.9 |
| 20260510190306 | 67 | 52 | 3.0 | 3.0 | 0.00 | 0.25 | 0.00 | 38 | 1018.3 |
| 20260510185806 | 67 | 59 | 2.0 | 2.0 | 0.00 | 0.25 | 0.00 | 40 | 1017.9 |
| 20260510184805 | 67 | 10 | 1.0 | 2.0 | 0.00 | 0.25 | 0.00 | 39 | 1017.9 |
| 20260510184306 | 67 | 78 | 2.0 | 2.0 | 0.00 | 0.25 | 0.00 | 43 | 1017.9 |
| 20260510183305 | 68 | 106 | 2.0 | 3.0 | 0.00 | 0.25 | 0.00 | 38 | 1018.3 |
| 20260510182806 | 68 | 113 | 2.0 | 2.0 | 0.00 | 0.25 | 0.00 | 40 | 1017.9 |
| 20260510181805 | 67 | 332 | 3.0 | 5.0 | 0.00 | 0.25 | 0.00 | 41 | 1017.9 |
| 20260510181305 | 69 | 113 | 2.0 | 5.0 | 0.00 | 0.25 | 0.00 | 40 | 1017.6 |
| 20260510180806 | 67 | 111 | 2.0 | 7.0 | 0.00 | 0.25 | 0.00 | 42 | 1017.6 |
| 20260510180305 | 67 | 24 | 5.0 | 6.0 | 0.00 | 0.25 | 0.00 | 42 | 1017.9 |
| 20260510175805 | 67 | 98 | 2.0 | 5.0 | 0.00 | 0.25 | 0.00 | 40 | 1017.9 |
| 20260510175306 | 67 | 16 | 4.0 | 6.0 | 0.00 | 0.25 | 0.00 | 42 | 1017.9 |
| 20260510174805 | 65 | 139 | 2.0 | 6.0 | 0.00 | 0.25 | 0.00 | 44 | 1018.3 |
| 20260510174305 | 66 | 85 | 2.0 | 3.0 | 0.00 | 0.25 | 0.00 | 46 | 1018.3 |
| 20260510173806 | 65 | 65 | 2.0 | 3.0 | 0.00 | 0.25 | 0.00 | 45 | 1017.9 |
| 20260510173306 | 66 | 57 | 2.0 | 6.0 | 0.00 | 0.25 | 0.00 | 44 | 1018.3 |
| 20260510172307 | 64 | 327 | 2.0 | 7.0 | 0.00 | 0.25 | 0.00 | 43 | 1018.6 |
| 20260510171805 | 65 | 0 | 3.0 | 7.0 | 0.00 | 0.25 | 0.00 | 42 | 1018.6 |
| 20260510170805 | 66 | 2 | 3.0 | 5.0 | 0.00 | 0.25 | 0.00 | 41 | 1018.6 |
| 20260510165806 | 66 | 142 | 2.0 | 6.0 | 0.00 | 0.25 | 0.00 | 46 | 1018.6 |
| 20260510165307 | 65 | 86 | 2.0 | 3.0 | 0.00 | 0.25 | 0.00 | 46 | 1018.6 |
| 20260510164305 | 64 | 4 | 2.0 | 2.0 | 0.00 | 0.25 | 0.00 | 50 | 1018.6 |
| 20260510163805 | 63 | 41 | 2.0 | 2.0 | 0.00 | 0.25 | 0.00 | 51 | 1018.6 |
| 20260510163306 | 63 | 67 | 2.0 | 2.0 | 0.00 | 0.25 | 0.00 | 52 | 1018.6 |
| 20260510162805 | 63 | 38 | 2.0 | 2.0 | 0.00 | 0.25 | 0.00 | 54 | 1018.6 |
| 20260510161806 | 62 | 330 | 3.0 | 6.0 | 0.00 | 0.25 | 0.00 | 54 | 1018.6 |
| 20260510161306 | 63 | 49 | 1.0 | 2.0 | 0.00 | 0.25 | 0.00 | 54 | 1019.0 |
| 20260510160805 | 62 | 351 | 2.0 | 2.0 | 0.00 | 0.25 | 0.00 | 56 | 1019.0 |
| 20260510160305 | 63 | 96 | 2.0 | 2.0 | 0.00 | 0.25 | 0.00 | 54 | 1019.0 |
| 20260510155805 | 62 | 1 | 3.0 | 6.0 | 0.00 | 0.25 | 0.00 | 55 | 1019.0 |
| 20260510155306 | 62 | 21 | 2.0 | 6.0 | 0.00 | 0.25 | 0.00 | 55 | 1019.0 |
| 20260510154806 | 61 | 76 | 2.0 | 6.0 | 0.00 | 0.25 | 0.00 | 59 | 1019.0 |
| 20260510154305 | 61 | 149 | 2.0 | 2.0 | 0.00 | 0.25 | 0.00 | 60 | 1018.6 |
| 20260510153805 | 61 | 6 | 1.0 | 3.0 | 0.00 | 0.25 | 0.00 | 63 | 1019.0 |
| 20260510153305 | 60 | 357 | 2.0 | 2.0 | 0.00 | 0.25 | 0.00 | 62 | 1018.6 |
| 20260510152307 | 59 | 95 | 2.0 | 5.0 | 0.00 | 0.25 | 0.00 | 62 | 1018.3 |
| 20260510151805 | 59 | 50 | 2.0 | 3.0 | 0.00 | 0.25 | 0.00 | 64 | 1018.3 |
| 20260510151305 | 59 | 17 | 1.0 | 2.0 | 0.00 | 0.25 | 0.00 | 61 | 1018.6 |
| 20260510150305 | 59 | 9 | 2.0 | 3.0 | 0.00 | 0.25 | 0.00 | 62 | 1018.3 |
| 20260510145805 | 60 | 59 | 1.0 | 2.0 | 0.00 | 0.25 | 0.00 | 63 | 1018.3 |
| 20260510145306 | 60 | 354 | 1.0 | 1.0 | 0.00 | 0.25 | 0.00 | 65 | 1018.3 |
| 20260510144805 | 59 | 354 | 1.0 | 2.0 | 0.00 | 0.25 | 0.00 | 64 | 1018.3 |
| 20260510144305 | 59 | 8 | 2.0 | 2.0 | 0.00 | 0.25 | 0.00 | 62 | 1018.3 |
| 20260510143805 | 59 | 312 | 2.0 | 2.0 | 0.00 | 0.25 | 0.00 | 63 | 1018.3 |
| 20260510143305 | 58 | 353 | 1.0 | 2.0 | 0.00 | 0.25 | 0.00 | 62 | 1018.3 |
| 20260510142805 | 58 | 91 | 2.0 | 2.0 | 0.00 | 0.25 | 0.00 | 61 | 1017.9 |
| 20260510141805 | 59 | 36 | 2.0 | 2.0 | 0.00 | 0.25 | 0.00 | 63 | 1017.9 |
| 20260510141305 | 59 | 130 | 1.0 | 2.0 | 0.00 | 0.25 | 0.00 | 63 | 1017.6 |
| 20260510140805 | 59 | 9 | 1.0 | 2.0 | 0.00 | 0.25 | 0.00 | 63 | 1017.6 |
| 20260510140305 | 58 | 35 | 2.0 | 3.0 | 0.00 | 0.25 | 0.00 | 61 | 1017.6 |
| 20260510135805 | 57 | 82 | 2.0 | 2.0 | 0.00 | 0.25 | 0.00 | 64 | 1017.6 |
| 20260510135306 | 58 | 54 | 2.0 | 6.0 | 0.00 | 0.25 | 0.00 | 64 | 1017.3 |
| 20260510134305 | 59 | 327 | 3.0 | 6.0 | 0.00 | 0.25 | 0.00 | 68 | 1017.6 |
| 20260510133805 | 58 | 17 | 2.0 | 2.0 | 0.00 | 0.25 | 0.00 | 66 | 1017.3 |
| 20260510133306 | 58 | 34 | 2.0 | 3.0 | 0.00 | 0.25 | 0.00 | 68 | 1017.3 |
| 20260510132805 | 57 | 29 | 4.0 | 6.0 | 0.00 | 0.25 | 0.00 | 70 | 1017.6 |
| 20260510131805 | 57 | 124 | 1.0 | 1.0 | 0.00 | 0.25 | 0.00 | 74 | 1017.6 |
| 20260510131305 | 57 | 6 | 1.0 | 2.0 | 0.00 | 0.25 | 0.00 | 74 | 1017.3 |
| 20260510130805 | 56 | 20 | 1.0 | 2.0 | 0.00 | 0.25 | 0.00 | 82 | 1017.3 |
| 20260510130305 | 56 | 20 | 1.0 | 2.0 | 0.00 | 0.25 | 0.00 | 80 | 1017.3 |
| 20260510125805 | 55 | 20 | 1.0 | 2.0 | 0.00 | 0.25 | 0.00 | 80 | 1017.3 |
| 20260510125307 | 55 | 20 | 2.0 | 2.0 | 0.00 | 0.25 | 0.00 | 82 | 1017.3 |
| 20260510124804 | 55 | 13 | 1.0 | 1.0 | 0.00 | 0.25 | 0.00 | 83 | 1016.9 |
| 20260510123805 | 55 | 349 | 1.0 | 2.0 | 0.00 | 0.25 | 0.00 | 82 | 1016.6 |
| 20260510123305 | 55 | 15 | 2.0 | 2.0 | 0.00 | 0.25 | 0.00 | 80 | 1016.6 |
| 20260510122805 | 54 | 1 | 2.0 | 2.0 | 0.00 | 0.25 | 0.00 | 83 | 1016.3 |
| 20260510122306 | 54 | 43 | 2.0 | 2.0 | 0.00 | 0.25 | 0.00 | 84 | 1016.6 |
| 20260510121805 | 53 | 0 | 1.0 | 2.0 | 0.00 | 0.25 | 0.00 | 87 | 1016.6 |
| 20260510121305 | 53 | 0 | 0.0 | 1.0 | 0.00 | 0.25 | 0.00 | 89 | 1016.3 |
| 20260510120805 | 53 | 0 | 0.0 | 0.0 | 0.00 | 0.25 | 0.00 | 88 | 1016.6 |
| 20260510115805 | 53 | 0 | 0.0 | 2.0 | 0.00 | 0.25 | 0.00 | 89 | 1016.3 |
| 20260510115306 | 52 | 0 | 1.0 | 2.0 | 0.00 | 0.25 | 0.00 | 88 | 1016.3 |
| 20260510114305 | 52 | 4 | 3.0 | 5.0 | 0.00 | 0.25 | 0.00 | 88 | 1015.9 |
| 20260510113805 | 52 | 6 | 2.0 | 2.0 | 0.00 | 0.25 | 0.00 | 90 | 1015.9 |
| 20260510113305 | 52 | 6 | 2.0 | 3.0 | 0.00 | 0.25 | 0.00 | 90 | 1015.6 |
| 20260510112306 | 52 | 6 | 2.0 | 2.0 | 0.00 | 0.25 | 0.00 | 90 | 1015.6 |
| 20260510111304 | 52 | 6 | 2.0 | 2.0 | 0.00 | 0.25 | 0.00 | 91 | 1015.2 |
| 20260510110305 | 52 | 6 | 2.0 | 3.0 | 0.00 | 0.25 | 0.00 | 91 | 1015.2 |
| 20260510105805 | 52 | 6 | 2.0 | 3.0 | 0.00 | 0.25 | 0.00 | 91 | 1014.9 |
| 20260510105306 | 52 | 6 | 2.0 | 2.0 | 0.00 | 0.25 | 0.00 | 92 | 1014.9 |
| 20260510104805 | 52 | 6 | 2.0 | 3.0 | 0.00 | 0.25 | 0.00 | 91 | 1014.6 |
| 20260510104305 | 52 | 6 | 1.0 | 2.0 | 0.00 | 0.25 | 0.00 | 92 | 1014.6 |
| 20260510102805 | 53 | 6 | 1.0 | 2.0 | 0.00 | 0.25 | 0.00 | 94 | 1014.6 |
| 20260510102306 | 53 | 6 | 2.0 | 2.0 | 0.00 | 0.25 | 0.00 | 94 | 1014.6 |
| 20260510101805 | 53 | 6 | 2.0 | 2.0 | 0.00 | 0.25 | 0.00 | 94 | 1014.2 |
| 20260510101305 | 53 | 6 | 1.0 | 2.0 | 0.00 | 0.25 | 0.00 | 93 | 1014.2 |
| 20260510100805 | 53 | 6 | 1.0 | 3.0 | 0.00 | 0.25 | 0.00 | 94 | 1013.9 |
| 20260510100305 | 54 | 6 | 2.0 | 2.0 | 0.00 | 0.25 | 0.00 | 94 | 1013.9 |
| 20260510095805 | 54 | 6 | 1.0 | 3.0 | 0.00 | 0.25 | 0.00 | 94 | 1013.9 |
| 20260510095306 | 54 | 6 | 2.0 | 3.0 | 0.00 | 0.25 | 0.00 | 95 | 1013.9 |
| 20260510094804 | 54 | 6 | 2.0 | 2.0 | 0.00 | 0.25 | 0.00 | 95 | 1013.9 |
| 20260510094305 | 55 | 6 | 2.0 | 3.0 | 0.00 | 0.25 | 0.00 | 95 | 1013.9 |
| 20260510093805 | 55 | 6 | 3.0 | 3.0 | 0.00 | 0.25 | 0.00 | 96 | 1013.9 |
| 20260510093304 | 55 | 6 | 2.0 | 3.0 | 0.00 | 0.25 | 0.00 | 96 | 1013.9 |
| 20260510092804 | 55 | 6 | 2.0 | 3.0 | 0.00 | 0.25 | 0.00 | 96 | 1013.9 |
| 20260510092306 | 55 | 6 | 2.0 | 2.0 | 0.00 | 0.25 | 0.00 | 97 | 1013.9 |
| 20260510091805 | 56 | 6 | 2.0 | 3.0 | 0.00 | 0.25 | 0.00 | 97 | 1013.9 |
| 20260510091304 | 56 | 6 | 2.0 | 2.0 | 0.00 | 0.25 | 0.00 | 97 | 1013.9 |
| 20260510085804 | 56 | 6 | 0.0 | 0.0 | 0.00 | 0.25 | 0.00 | 97 | 1013.2 |
| 20260510085306 | 55 | 6 | 1.0 | 1.0 | 0.00 | 0.25 | 0.00 | 97 | 1013.2 |
| 20260510084804 | 56 | 6 | 0.0 | 0.0 | 0.00 | 0.25 | 0.00 | 97 | 1012.9 |
| 20260510084304 | 56 | 5 | 1.0 | 1.0 | 0.00 | 0.25 | 0.00 | 96 | 1012.9 |
| 20260510083305 | 56 | 5 | 0.0 | 0.0 | 0.00 | 0.25 | 0.00 | 96 | 1012.9 |
| 20260510082805 | 56 | 5 | 0.0 | 0.0 | 0.00 | 0.25 | 0.00 | 96 | 1012.5 |
| 20260510082306 | 56 | 5 | 0.0 | 1.0 | 0.00 | 0.25 | 0.00 | 96 | 1012.5 |
| 20260510081804 | 56 | 5 | 0.0 | 0.0 | 0.00 | 0.25 | 0.00 | 96 | 1012.5 |
| 20260510080805 | 56 | 4 | 1.0 | 1.0 | 0.00 | 0.25 | 0.00 | 96 | 1012.2 |
| 20260510080304 | 57 | 4 | 1.0 | 2.0 | 0.00 | 0.25 | 0.00 | 96 | 1012.2 |
| 20260510075804 | 57 | 4 | 1.0 | 2.0 | 0.00 | 0.25 | 0.00 | 96 | 1012.2 |
| 20260510075306 | 57 | 4 | 2.0 | 2.0 | 0.00 | 0.25 | 0.00 | 96 | 1012.2 |
| 20260510074804 | 57 | 5 | 2.0 | 3.0 | 0.00 | 0.25 | 0.00 | 96 | 1011.9 |
| 20260510073804 | 58 | 11 | 1.0 | 1.0 | 0.00 | 0.25 | 0.00 | 97 | 1011.9 |
| 20260510073304 | 58 | 11 | 1.0 | 1.0 | 0.00 | 0.25 | 0.00 | 97 | 1012.2 |
| 20260510072804 | 58 | 11 | 1.0 | 1.0 | 0.00 | 0.25 | 0.00 | 96 | 1012.2 |
| 20260510071805 | 58 | 11 | 0.0 | 0.0 | 0.00 | 0.25 | 0.00 | 96 | 1011.9 |
| 20260510071304 | 58 | 11 | 1.0 | 1.0 | 0.00 | 0.25 | 0.00 | 96 | 1011.9 |
| 20260510070804 | 58 | 11 | 1.0 | 2.0 | 0.00 | 0.25 | 0.00 | 96 | 1011.9 |
| 20260510070304 | 58 | 11 | 1.0 | 2.0 | 0.00 | 0.25 | 0.00 | 96 | 1011.9 |
| 20260510065804 | 58 | 11 | 1.0 | 1.0 | 0.00 | 0.25 | 0.00 | 96 | 1011.9 |
| 20260510065306 | 58 | 11 | 0.0 | 0.0 | 0.00 | 0.25 | 0.00 | 96 | 1012.2 |
| 20260510064804 | 58 | 11 | 0.0 | 2.0 | 0.00 | 0.25 | 0.00 | 96 | 1012.2 |
| 20260510063805 | 58 | 11 | 2.0 | 2.0 | 0.00 | 0.25 | 0.00 | 96 | 1011.9 |
| 20260510063304 | 58 | 11 | 1.0 | 2.0 | 0.00 | 0.25 | 0.00 | 96 | 1011.5 |
| 20260510062804 | 58 | 12 | 2.0 | 2.0 | 0.00 | 0.25 | 0.00 | 96 | 1011.9 |
| 20260510062307 | 58 | 15 | 2.0 | 2.0 | 0.00 | 0.25 | 0.00 | 96 | 1011.9 |
| 20260510061804 | 58 | 18 | 1.0 | 1.0 | 0.00 | 0.25 | 0.00 | 96 | 1011.9 |
| 20260510061304 | 58 | 18 | 0.0 | 0.0 | 0.00 | 0.25 | 0.00 | 96 | 1011.5 |
| 20260510055804 | 59 | 18 | 1.0 | 2.0 | 0.00 | 0.25 | 0.00 | 96 | 1011.9 |
| 20260510055306 | 59 | 342 | 1.0 | 2.0 | 0.01 | 0.25 | 0.00 | 96 | 1011.5 |
| 20260510054805 | 59 | 22 | 1.0 | 2.0 | 0.01 | 0.25 | 0.00 | 96 | 1011.9 |
| 20260510054311 | 59 | 28 | 2.0 | 5.0 | 0.01 | 0.25 | 0.00 | 96 | 1011.5 |
| 20260510053804 | 59 | 85 | 2.0 | 5.0 | 0.01 | 0.25 | 0.00 | 96 | 1011.5 |
| 20260510053304 | 59 | 80 | 1.0 | 1.0 | 0.01 | 0.25 | 0.00 | 96 | 1011.5 |
| 20260510052306 | 59 | 36 | 2.0 | 2.0 | 0.01 | 0.25 | 0.00 | 96 | 1011.2 |
| 20260510051804 | 59 | 24 | 3.0 | 5.0 | 0.02 | 0.25 | 0.00 | 96 | 1010.8 |
| 20260510051304 | 59 | 50 | 2.0 | 2.0 | 0.02 | 0.25 | 0.00 | 96 | 1011.2 |
| 20260510050915 | 59 | 0 | 2.0 | 2.0 | 0.03 | 0.25 | 0.00 | 96 | 1011.2 |
| 20260510050304 | 59 | 43 | 1.0 | 2.0 | 0.04 | 0.25 | 0.00 | 96 | 1011.5 |
| 20260510045804 | 60 | 58 | 2.0 | 2.0 | 0.04 | 0.25 | 0.25 | 96 | 1011.2 |
| 20260510045306 | 60 | 18 | 2.0 | 3.0 | 0.05 | 0.24 | 0.24 | 96 | 1011.2 |
| 20260510044805 | 60 | 303 | 1.0 | 2.0 | 0.06 | 0.24 | 0.24 | 96 | 1010.8 |
| 20260510044304 | 60 | 71 | 2.0 | 2.0 | 0.07 | 0.24 | 0.24 | 96 | 1010.5 |
| 20260510043804 | 60 | 68 | 1.0 | 1.0 | 0.07 | 0.24 | 0.24 | 96 | 1010.8 |
| 20260510043305 | 60 | 102 | 1.0 | 2.0 | 0.08 | 0.24 | 0.24 | 95 | 1010.5 |
| 20260510042805 | 60 | 102 | 2.0 | 2.0 | 0.09 | 0.24 | 0.24 | 95 | 1010.5 |
| 20260510042306 | 60 | 119 | 2.0 | 2.0 | 0.10 | 0.24 | 0.24 | 95 | 1010.5 |
| 20260510041804 | 60 | 92 | 2.0 | 5.0 | 0.11 | 0.24 | 0.24 | 95 | 1010.8 |
| 20260510041304 | 60 | 131 | 2.0 | 2.0 | 0.11 | 0.23 | 0.23 | 95 | 1011.2 |
| 20260510040804 | 60 | 128 | 2.0 | 9.0 | 0.12 | 0.22 | 0.22 | 95 | 1011.2 |
| 20260510040304 | 60 | 71 | 3.0 | 9.0 | 0.14 | 0.21 | 0.21 | 95 | 1011.2 |
| 20260510035306 | 60 | 117 | 4.0 | 5.0 | 0.19 | 0.19 | 0.19 | 94 | 1010.8 |
| 20260510034805 | 60 | 83 | 3.0 | 6.0 | 0.18 | 0.18 | 0.18 | 95 | 1010.8 |
| 20260510034304 | 60 | 92 | 3.0 | 5.0 | 0.17 | 0.17 | 0.17 | 94 | 1010.8 |
| 20260510033804 | 60 | 90 | 2.0 | 2.0 | 0.17 | 0.17 | 0.17 | 94 | 1011.5 |
| 20260510033304 | 61 | 4 | 3.0 | 5.0 | 0.16 | 0.16 | 0.16 | 94 | 1011.5 |
| 20260510032804 | 61 | 19 | 2.0 | 6.0 | 0.15 | 0.15 | 0.15 | 94 | 1011.5 |
| 20260510032306 | 61 | 355 | 5.0 | 9.0 | 0.14 | 0.14 | 0.14 | 94 | 1011.5 |
| 20260510031805 | 61 | 56 | 5.0 | 8.0 | 0.13 | 0.13 | 0.13 | 94 | 1011.5 |
| 20260510031304 | 61 | 5 | 6.0 | 8.0 | 0.12 | 0.12 | 0.12 | 93 | 1011.9 |
| 20260510030804 | 61 | 356 | 4.0 | 7.0 | 0.10 | 0.11 | 0.10 | 92 | 1011.9 |
| 20260510030304 | 62 | 16 | 7.0 | 12.0 | 0.07 | 0.08 | 0.07 | 90 | 1011.5 |
| 20260510025804 | 64 | 352 | 6.0 | 10.0 | 0.00 | 0.02 | 0.00 | 84 | 1011.2 |
| 20260510025306 | 66 | 358 | 7.0 | 15.0 | 0.00 | 0.03 | 0.00 | 75 | 1010.5 |
| 20260510024804 | 68 | 25 | 3.0 | 3.0 | 0.00 | 0.04 | 0.00 | 68 | 1009.1 |
| 20260510024304 | 71 | 19 | 0.0 | 1.0 | 0.00 | 0.05 | 0.00 | 58 | 1008.5 |
| 20260510023804 | 71 | 19 | 1.0 | 1.0 | 0.00 | 0.07 | 0.00 | 58 | 1008.5 |
| 20260510023304 | 72 | 19 | 1.0 | 2.0 | 0.00 | 0.08 | 0.00 | 57 | 1008.5 |
| 20260510022804 | 72 | 19 | 2.0 | 2.0 | 0.00 | 0.09 | 0.00 | 55 | 1008.1 |
| 20260510022306 | 72 | 18 | 1.0 | 1.0 | 0.00 | 0.12 | 0.00 | 55 | 1008.1 |
| 20260510021804 | 72 | 18 | 2.0 | 2.0 | 0.00 | 0.14 | 0.00 | 53 | 1008.1 |
| 20260510020804 | 71 | 11 | 1.0 | 1.0 | 0.00 | 0.18 | 0.00 | 53 | 1007.8 |
| 20260510015804 | 73 | 11 | 1.0 | 1.0 | 0.00 | 0.22 | 0.00 | 51 | 1007.8 |
| 20260510015306 | 74 | 11 | 1.0 | 1.0 | 0.00 | 0.24 | 0.00 | 49 | 1007.5 |
| 20260510014803 | 73 | 11 | 2.0 | 2.0 | 0.00 | 0.25 | 0.00 | 49 | 1007.1 |
| 20260510014304 | 72 | 11 | 0.0 | 0.0 | 0.00 | 0.28 | 0.00 | 52 | 1007.1 |
| 20260510013805 | 72 | 11 | 0.0 | 0.0 | 0.00 | 0.31 | 0.00 | 52 | 1006.8 |
| 20260510013304 | 72 | 11 | 0.0 | 0.0 | 0.00 | 0.33 | 0.00 | 53 | 1006.8 |
| 20260510012804 | 73 | 11 | 1.0 | 2.0 | 0.00 | 0.35 | 0.00 | 54 | 1006.8 |
| 20260510012306 | 73 | 11 | 1.0 | 1.0 | 0.00 | 0.36 | 0.00 | 50 | 1006.8 |
| 20260510011804 | 74 | 11 | 0.0 | 1.0 | 0.00 | 0.36 | 0.00 | 48 | 1007.1 |
| 20260510011304 | 74 | 11 | 1.0 | 1.0 | 0.00 | 0.36 | 0.00 | 48 | 1006.8 |
| 20260510010804 | 74 | 11 | 0.0 | 0.0 | 0.00 | 0.36 | 0.00 | 48 | 1006.8 |
| 20260510010304 | 74 | 11 | 0.0 | 0.0 | 0.00 | 0.36 | 0.00 | 49 | 1006.8 |
| 20260510005804 | 74 | 11 | 0.0 | 0.0 | 0.00 | 0.36 | 0.00 | 50 | 1006.8 |
| 20260510005306 | 74 | 11 | 0.0 | 0.0 | 0.00 | 0.36 | 0.00 | 52 | 1006.8 |
| 20260510004304 | 75 | 11 | 0.0 | 0.0 | 0.00 | 0.36 | 0.00 | 50 | 1006.8 |
| 20260510003304 | 76 | 11 | 0.0 | 0.0 | 0.00 | 0.37 | 0.00 | 48 | 1006.4 |
| 20260510002804 | 77 | 11 | 0.0 | 0.0 | 0.00 | 0.38 | 0.00 | 48 | 1006.4 |
| 20260510002307 | 77 | 11 | 0.0 | 1.0 | 0.00 | 0.38 | 0.00 | 45 | 1006.4 |
| 20260510001303 | 77 | 11 | 0.0 | 0.0 | 0.00 | 0.38 | 0.00 | 45 | 1006.1 |
| 20260510000804 | 77 | 11 | 0.0 | 0.0 | 0.00 | 0.38 | 0.00 | 44 | 1006.4 |
| 20260510000304 | 78 | 11 | 0.0 | 1.0 | 0.00 | 0.39 | 0.00 | 44 | 1006.4 |
| 20260509235804 | 78 | 11 | 1.0 | 2.0 | 0.00 | 0.39 | 0.00 | 44 | 1006.4 |
| 20260509235306 | 78 | 11 | 1.0 | 1.0 | 0.00 | 0.39 | 0.00 | 43 | 1006.1 |
| 20260509234804 | 78 | 11 | 0.0 | 1.0 | 0.00 | 0.39 | 0.00 | 44 | 1006.1 |
| 20260509234303 | 78 | 11 | 1.0 | 1.0 | 0.00 | 0.39 | 0.00 | 44 | 1006.1 |
| 20260509233304 | 78 | 11 | 1.0 | 1.0 | 0.00 | 0.39 | 0.00 | 42 | 1006.4 |
| 20260509232804 | 78 | 11 | 1.0 | 1.0 | 0.00 | 0.39 | 0.00 | 42 | 1006.4 |
| 20260509231803 | 78 | 11 | 2.0 | 2.0 | 0.00 | 0.39 | 0.00 | 44 | 1006.1 |
| 20260509231304 | 79 | 11 | 1.0 | 1.0 | 0.00 | 0.39 | 0.00 | 42 | 1006.1 |
| 20260509230804 | 79 | 11 | 1.0 | 2.0 | 0.00 | 0.39 | 0.00 | 41 | 1006.1 |
| 20260509230306 | 79 | 11 | 1.0 | 2.0 | 0.00 | 0.39 | 0.00 | 41 | 1006.4 |
| 20260509225306 | 79 | 11 | 2.0 | 2.0 | 0.00 | 0.39 | 0.00 | 41 | 1006.1 |
| 20260509224806 | 79 | 11 | 2.0 | 3.0 | 0.00 | 0.39 | 0.00 | 42 | 1006.1 |
| 20260509223806 | 79 | 342 | 1.0 | 2.0 | 0.00 | 0.39 | 0.00 | 42 | 1006.1 |
| 20260509222806 | 79 | 53 | 3.0 | 3.0 | 0.00 | 0.39 | 0.00 | 40 | 1006.1 |
| 20260509222307 | 79 | 42 | 1.0 | 2.0 | 0.00 | 0.39 | 0.00 | 40 | 1006.1 |
| 20260509221305 | 79 | 12 | 2.0 | 2.0 | 0.00 | 0.39 | 0.00 | 40 | 1006.1 |
| 20260509220805 | 79 | 345 | 2.0 | 3.0 | 0.00 | 0.39 | 0.00 | 39 | 1006.1 |
| 20260509220306 | 79 | 0 | 2.0 | 2.0 | 0.00 | 0.39 | 0.00 | 40 | 1006.1 |
| 20260509215805 | 79 | 18 | 2.0 | 5.0 | 0.00 | 0.39 | 0.00 | 39 | 1006.1 |
| 20260509215306 | 79 | 351 | 2.0 | 6.0 | 0.00 | 0.39 | 0.00 | 39 | 1006.1 |
| 20260509214805 | 79 | 2 | 3.0 | 6.0 | 0.00 | 0.39 | 0.00 | 40 | 1006.1 |
| 20260509214306 | 79 | 310 | 2.0 | 6.0 | 0.00 | 0.39 | 0.00 | 39 | 1005.8 |